Hourly Weather Roundup
Issued by NWS

Home | Current Version | Previous Version | Text Only | Print | Product List | Glossary On
Versions: 1 2 3 4 5 6 7 8 9 10 11 12 13 14 15 16 17 18 19 20 21 22 23 24 25 26 27 28 29 30 31 32 33 34 35 36 37 38 39 40 41 42 43 44 45 46 47 48 49 50
000
NZUS43 KILX 271910
HWRCRS

CRS HOURLY WEATHER ROUNDUP
NATIONAL WEATHER SERVICE, LINCOLN IL
200 PM CDT SAT AUG 27 2016


CITY           SKY/WX    TMP DP  RH WIND       PRES   REMARKS
CHAMPAIGN      MOSUNNY   84  74  71 S8        30.06F HX  91
LAWRENCEVILLE  MOSUNNY   85  74  69 S8        30.08F HX  92
PEORIA         CLOUDY    82  75  79 S9        30.03S HX  89
SPRINGFIELD    MOSUNNY   88  73  61 SW8       30.04F HX  95
$$


CITY           SKY/WX    TMP DP  RH WIND       PRES   REMARKS
BLOOMINGTON    MOSUNNY   84  72  67 SW13      30.06F HX  89
DECATUR        MOSUNNY   87  73  62 S8        30.05F HX  94
EFFINGHAM      MOSUNNY   86  75  69 SE8       30.08F HX  95
FLORA          MOSUNNY   86  72  62 S6        30.08S HX  92
GALESBURG      CLOUDY    82  71  68 SW7       30.04S HX  86
JACKSONVILLE   MOSUNNY   85  72  63 W3        30.04S HX  91
LACON          CLOUDY    81  71  71 SW9       30.02F HX  84
LINCOLN        MOSUNNY   86  74  66 CALM      30.04F HX  94
LITCHFIELD     MOSUNNY   90  73  57 S7        30.05F HX  97

CITY           SKY/WX    TMP DP  RH WIND       PRES   REMARKS
MACOMB         CLOUDY    82  73  73 W8        30.06R HX  87
MATTOON        MOSUNNY   84  72  67 S8        30.07S HX  89
MOLINE         MOSUNNY   83  71  67 W8        30.01S HX  87
OLNEY          MOSUNNY   84  72  65 S5        30.08F HX  89
PARIS          SUNNY     84  75  74 S6        30.08S HX  92
PONTIAC        PTSUNNY   85  75  74 SW8       30.04F HX  93
QUINCY         MOSUNNY   86  73  65 W12       30.03R HX  93
RANTOUL        PTSUNNY   85  74  69 S8        30.05F HX  93
ROBINSON       SUNNY     84  72  67 SE3       30.09S HX  90
TAYLORVILLE    MOSUNNY   85  74  69 S5        30.04F HX  92
TERRE HAUTE    SUNNY     85  70  60 S9        30.08F HX  89
$$


CITY           SKY/WX    TMP DP  RH WIND       PRES   REMARKS
BURLINGTON     SUNNY     83  72  69 VRB5      30.02F HX  88
CHICAGO        PTSUNNY   80  70  71 SW12      30.02F HX  83
DES MOINES     CLOUDY    76  68  76 W5        30.03R
EVANSVILLE     MOSUNNY   87  72  60 SE8       30.08F HX  93
INDIANAPOLIS   CLOUDY    76  71  85 SE8       30.11R
KANSAS CITY    PTSUNNY   84  69  60 VRB5      30.03S HX  88
MILWAUKEE      CLOUDY    75  69  81 SE7       30.02F
ST LOUIS       PTSUNNY   92  70  48 SW3       30.04F HX  97
$$





USA.gov is the U.S. government's official web portal to all federal, state and local government web resources and services.